Weather History for Texarkana, AR

Change the Weather History Date:

Monday, December 2, 2013

  Actual Average Record
Temperature  
Mean Temperature 57 °F 48 °F  
Max Temperature 66 °F 59 °F 80 °F (1922)
Min Temperature 47 °F 38 °F 21 °F (1960)
Degree Days  
Heating Degree Days 8 17  
Month to date heating degree days 14 33  
Since 1 July heating degree days 539 491  
Cooling Degree Days 0 0  
Month to date cooling degree days 0 0  
Year to date cooling degree days 2352 2204  
Growing Degree Days 6 (Base 50)    
Moisture  
Dew Point 53 °F    
Average Humidity 84    
Maximum Humidity 100    
Minimum Humidity 67    
Precipitation  
Precipitation 0.00 in 0.19 in 2.30 in (1933)
Month to date precipitation 0.00 0.38  
Year to date precipitation 39.51 44.98  
Snow  
Snow 0.00 in - - ()
Month to date snowfall 0.0  
Since 1 July snowfall 0.1  
Snow Depth 0.00 in    
Sea Level Pressure  
Sea Level Pressure 29.76 in    
Wind  
Wind Speed 3 mph (SW)    
Max Wind Speed 9 mph    
Max Gust Speed 13 mph    
Visibility 4 miles    
Events Fog    
T = Trace of Precipitation, MM = Missing Value Source: NWS Daily Summary

Daily Weather History Graph

Daily Weather History Graph

Search for Another Location

Airport:

Trip Planner

Search our weather history database for the weather conditions in past years. The results will help you decide how hot, cold, wet, or windy it might be!

Date:

Astronomy

Dec. 02, 2013 Rise Set
Actual Time 7:03 AM CST 5:07 PM CST
Civil Twilight 6:35 AM CST 5:35 PM CST
Nautical Twilight 6:05 AM CST 6:05 PM CST
Astronomical Twilight 5:35 AM CST 6:35 PM CST
Moon 6:30 AM CST (12/2) 5:10 PM CST (12/2)
Length of Visible Light 10h 59m
Length of Day
10h 04m
Waning Crescent, 0% of the Moon is Illuminated
Dec 2
Waning Crescent
Dec 2
New
Dec 9
First Quarter
Dec 17
Full
Dec 25
Last Quarter

Hourly Weather History & Observations

Time (CST) Temp. Dew Point Humidity Pressure Visibility Wind Dir Wind Speed Gust Speed Precip Events Conditions
12:53 AM 57.9 °F 55.0 °F 90% 29.87 in 10.0 mi South 8.1 mph - N/A   Overcast
1:53 AM 57.9 °F 55.0 °F 90% 29.86 in 10.0 mi SSW 6.9 mph - N/A   Mostly Cloudy
2:53 AM 57.0 °F 55.0 °F 93% 29.84 in 9.0 mi SSW 6.9 mph - N/A   Mostly Cloudy
3:05 AM 55.4 °F 55.4 °F 100% 29.85 in 8.0 mi SSW 5.8 mph - N/A   Scattered Clouds
3:17 AM 55.4 °F 55.4 °F 100% 29.84 in 8.0 mi SSW 4.6 mph - N/A   Mostly Cloudy
3:53 AM 57.0 °F 55.0 °F 93% 29.83 in 7.0 mi SSW 5.8 mph - N/A   Overcast
4:53 AM 57.0 °F 55.9 °F 96% 29.80 in 6.0 mi SW 6.9 mph - N/A   Overcast
5:39 AM 57.2 °F 55.4 °F 94% 29.80 in 5.0 mi SW 5.8 mph - N/A   Overcast
5:53 AM 57.0 °F 55.9 °F 96% 29.80 in 4.0 mi SW 6.9 mph - N/A   Overcast
6:53 AM 57.0 °F 55.9 °F 96% 29.80 in 3.0 mi SW 4.6 mph - N/A   Overcast
7:10 AM 57.2 °F 55.4 °F 94% 29.80 in 2.5 mi SW 4.6 mph - N/A   Overcast
7:19 AM 57.2 °F 55.4 °F 94% 29.81 in 1.2 mi WSW 3.5 mph - N/A   Overcast
7:53 AM 57.0 °F 55.9 °F 96% 29.81 in 1.0 mi WSW 5.8 mph - N/A   Overcast
8:12 AM 57.2 °F 55.4 °F 94% 29.81 in 0.8 mi WSW 3.5 mph - N/A   Overcast
8:36 AM 57.2 °F 55.4 °F 94% 29.81 in 1.5 mi WSW 4.6 mph - N/A   Overcast
8:45 AM 57.2 °F 55.4 °F 94% 29.82 in 2.0 mi West 4.6 mph - N/A   Overcast
8:53 AM 57.0 °F 55.9 °F 96% 29.81 in 2.0 mi WSW 3.5 mph - N/A   Overcast
8:58 AM 57.2 °F 55.4 °F 94% 29.81 in 1.2 mi WSW 5.8 mph - N/A   Overcast
9:10 AM 57.2 °F 55.4 °F 94% 29.81 in 2.0 mi WSW 3.5 mph - N/A   Overcast
9:21 AM 57.2 °F 55.4 °F 94% 29.81 in 4.0 mi West 3.5 mph - N/A   Overcast
9:30 AM 57.2 °F 55.4 °F 94% 29.81 in 4.0 mi WSW 3.5 mph - N/A   Overcast
9:53 AM 57.9 °F 55.0 °F 90% 29.81 in 5.0 mi West 3.5 mph - N/A   Overcast
10:53 AM 60.1 °F 55.0 °F 83% 29.79 in 7.0 mi SW 5.8 mph - N/A   Overcast
11:28 AM 60.8 °F 55.4 °F 82% 29.79 in 7.0 mi SW 5.8 mph - N/A   Overcast
11:53 AM 60.1 °F 55.0 °F 83% 29.77 in 7.0 mi SW 5.8 mph - N/A   Overcast
12:38 PM 60.8 °F 55.4 °F 82% 29.75 in 7.0 mi SSW 4.6 mph - N/A   Overcast
12:53 PM 61.0 °F 55.0 °F 81% 29.73 in 7.0 mi South 5.8 mph - N/A   Overcast
1:53 PM 64.0 °F 53.1 °F 67% 29.71 in 9.0 mi Variable 4.6 mph - N/A   Mostly Cloudy
2:39 PM 64.4 °F 53.6 °F 68% 29.70 in 9.0 mi Calm Calm - N/A   Scattered Clouds
2:53 PM 64.9 °F 53.1 °F 65% 29.69 in 10.0 mi Calm Calm - N/A   Partly Cloudy
3:53 PM 64.9 °F 53.1 °F 65% 29.70 in 10.0 mi Calm Calm - N/A   Clear
4:53 PM 60.1 °F 55.0 °F 83% 29.68 in 9.0 mi Calm Calm - N/A   Clear
5:53 PM 55.0 °F 52.0 °F 89% 29.70 in 9.0 mi Calm Calm - N/A   Clear
6:53 PM 55.0 °F 52.0 °F 89% 29.71 in 5.0 mi Calm Calm - N/A   Clear
7:53 PM 53.1 °F 51.1 °F 93% 29.73 in 6.0 mi Calm Calm - N/A   Clear
8:41 PM 48.2 °F 48.2 °F 100% 29.73 in 1.8 mi Calm Calm - N/A   Clear
8:53 PM 48.9 °F 48.0 °F 97% 29.73 in 1.5 mi Calm Calm - N/A   Clear
9:04 PM 50.0 °F 48.2 °F 94% 29.73 in 1.0 mi Calm Calm - N/A   Clear
9:11 PM 48.2 °F 48.2 °F 100% 29.73 in 2.5 mi NE 3.5 mph - N/A   Clear
9:18 PM 50.0 °F 48.2 °F 94% 29.74 in 4.0 mi Calm Calm - N/A   Clear
9:40 PM 50.0 °F 48.2 °F 94% 29.73 in 2.0 mi Calm Calm - N/A   Clear
9:51 PM 48.2 °F 48.2 °F 100% 29.73 in 4.0 mi Calm Calm - N/A   Clear
9:53 PM 48.9 °F 48.9 °F 100% 29.72 in 3.0 mi Calm Calm - N/A   Clear
10:05 PM 48.2 °F 48.2 °F 100% 29.72 in 2.5 mi Calm Calm - N/A   Clear
10:13 PM 50.0 °F 48.2 °F 94% 29.71 in 3.0 mi Calm Calm - N/A   Clear
10:28 PM 51.8 °F 50.0 °F 94% 29.70 in 2.0 mi Calm Calm - N/A   Clear
10:43 PM 51.8 °F 51.8 °F 100% 29.71 in 3.0 mi Calm Calm - N/A   Clear
10:53 PM 50.0 °F 48.9 °F 96% 29.69 in 2.0 mi Calm Calm - N/A   Clear
11:01 PM 51.8 °F 50.0 °F 94% 29.70 in 1.8 mi Calm Calm - N/A   Clear
11:06 PM 51.8 °F 51.8 °F 100% 29.70 in 3.0 mi Calm Calm - N/A   Clear
11:24 PM 51.8 °F 50.0 °F 94% 29.70 in 2.5 mi Calm Calm - N/A   Clear
11:40 PM 50.0 °F 48.2 °F 94% 29.70 in 1.2 mi Calm Calm - N/A   Clear
11:47 PM 48.2 °F 46.4 °F 93% 29.70 in 0.2 mi Calm Calm - N/A Fog Fog
11:48 PM 48.2 °F 46.4 °F 93% 29.69 in 0.2 mi Calm Calm - N/A Fog Fog
11:53 PM 46.9 °F 46.9 °F 100% 29.69 in 0.2 mi Calm Calm - N/A Fog Fog